This demonstration page uses our WeatherBlox Daily Observations layout. Learn more.

Left ArrowRight Arrow

41.86663, -103.66717

Hourly Observations for March 21, 2021

Temp ( °F °C ) Dew Point ( °F °C ) Humidity (%) Winds ( mph kmh ) Pressure ( in mb ) Visibility ( mi km ) Precip ( " mm )
12:53 am 00:53 Clear 37 2.8 33 0.6 86 86 NW 17 28 29.71 1006 10 16.0934 0 0
1:53 am 01:53 Clear 37 2.8 32 0 82 82 WNW 16 26 29.75 1007 10 16.0934 0 0
2:53 am 02:53 Clear 36 2.2 32 0 86 86 WNW 15 24 29.77 1008 10 16.0934 0 0
3:53 am 03:53 Clear 36 2.2 32 0 86 86 WNW 12 19 29.82 1010 10 16.0934 0 0
4:53 am 04:53 Clear 34 1.1 32 0 92 92 WNW 10 17 29.83 1010 10 16.0934 0 0
5:53 am 05:53 Partly Cloudy 37 2.8 33 0.6 86 86 NW 16 26 29.87 1011 10 16.0934 0 0
6:53 am 06:53 Clear 35 1.7 32 0 89 89 WNW 15 24 29.92 1013 10 16.0934 0 0
7:53 am 07:53 Mostly Sunny 35 1.7 32 0 89 89 WNW 9 15 29.97 1015 10 16.0934 0 0
8:53 am 08:53 Partly Cloudy 39 3.9 33 0.6 79 79 WNW 17 28 29.98 1015 10 16.0934 0 0
9:53 am 09:53 Mostly Cloudy 41 5 33 0.6 73 73 NW 16 26 30 1016 10 16.0934 0 0
10:25 am 10:25 Mostly Cloudy 44 6.7 36 2.2 73 73 NW 17 28 30 1016 10 16.0934 0 0
10:53 am 10:53 Cloudy 42 5.6 34 1.1 73 73 NNW 14 22 30.01 1016 10 16.0934 0 0
11:53 am 11:53 Cloudy 43 6.1 34 1.1 71 71 N 12 19 30.02 1017 10 16.0934 0 0
12:53 pm 12:53 Mostly Cloudy 46 7.8 38 3.3 73 73 N 18 30 30.01 1016 10 16.0934 0 0
1:53 pm 13:53 Mostly Sunny 49 9.4 41 5 74 74 N 18 30 30 1016 10 16.0934 0 0
2:53 pm 14:53 Sunny 49 9.4 41 5 74 74 NW 15 24 30 1016 10 16.0934 0 0
3:53 pm 15:53 Sunny 50 10 41 5 71 71 NNW 17 28 30.01 1016 10 16.0934 0 0
4:53 pm 16:53 Sunny 49 9.4 39 3.9 69 69 NNW 17 28 30.01 1016 10 16.0934 0 0
5:53 pm 17:53 Sunny 47 8.3 37 2.8 69 69 NNW 13 20 30.02 1017 10 16.0934 0 0
6:53 pm 18:53 Sunny 43 6.1 33 0.6 68 68 NNW 6 9 30.06 1018 10 16.0934 0 0
7:53 pm 19:53 Clear 41 5 29 -1.7 62 62 NW 3 6 30.08 1019 10 16.0934 0 0
8:53 pm 20:53 Clear 34 1.1 29 -1.7 82 82 NNW 5 7 30.09 1019 10 16.0934 0 0
9:53 pm 21:53 Clear 32 0 30 -1.1 92 92 WNW 8 13 30.1 1019 10 16.0934 0 0
10:53 pm 22:53 Clear 30 -1.1 28 -2.2 92 92 NW 8 13 30.11 1020 10 16.0934 0 0
11:53 pm 23:53 Clear 30 -1.1 28 -2.2 92 92 NW 8 13 30.11 1020 10 16.0934 0 0

Powered by AerisWeather